Location: Czu?�w
(50.1404°N, 18.9919°E)
Time: 03:42:33
(UTC+00:00)

Cosmos 1331 Rocket - Pass Details

Date: 27 October 2020
Orbit: 749 x 778 km, 74.0° (Epoch: 27 November)

Event Time Altitude Azimuth Distance (km) Brightness Sun altitude
Rises 15:59:03 0° 185° (S) 3,190 7.5 -5.5°
Reaches altitude 10° 16:01:27 10° 181° (S) 2,267 6.6 -5.9°
Maximum altitude 16:06:24 50° 107° (ESE) 953 4.2 -6.6°
Drops below altitude 10° 16:11:22 10° 33° (NNE) 2,281 6.1 -7.4°
Sets 16:13:47 0° 28° (NNE) 3,211 6.8 -7.8°
